Chignik, AK

9:29 PM AKDT on July 23, 2017 (GMT -0800)
Chignik

Weather History for PAJC - November, 2013

Change the Weather History Date:

Monday, November 4, 2013

  Actual Average Record
Temperature  
Mean Temperature 42 °F -  
Max Temperature 44 °F 40 °F 50 °F (2015)
Min Temperature 37 °F 34 °F 26 °F (2001)
Degree Days  
Heating Degree Days 24    
Moisture  
Dew Point 37 °F    
Average Humidity 82    
Maximum Humidity 100    
Minimum Humidity 71    
Precipitation  
Precipitation 0.00 in - - ()
Sea Level Pressure  
Sea Level Pressure 29.38 in    
Wind  
Wind Speed 6 mph (WNW)    
Max Wind Speed 31 mph    
Max Gust Speed 44 mph    
Visibility 10 miles    
Events      
Averages and records for this station are not official NWS values.
T = Trace of Precipitation, MM = Missing Value Source: NWS Daily Summary

Daily Weather History Graph

Daily Weather History Graph

Search for Another Location

Airport or City:

Trip Planner

Search our weather history database for the weather conditions in past years. The results will help you decide how hot, cold, wet, or windy it might be!

Date:

Astronomy

Nov. 04, 2013 Rise Set
Actual Time 8:49 AM AKST 5:44 PM AKST
Civil Twilight 8:08 AM AKST 6:24 PM AKST
Nautical Twilight 7:23 AM AKST 7:09 PM AKST
Astronomical Twilight 6:40 AM AKST 7:53 PM AKST
Moon 10:26 AM AKST (11/4) 6:43 PM AKST (11/4)
Length of Visible Light 10h 16m
Length of Day
8h 55m
New Moon, 2% of the Moon is Illuminated
Nov 4
New Moon
Nov 9
First Quarter
Nov 17
Full
Nov 25
Last Quarter
Dec 2
New

Hourly Weather History & Observations

Time (AKST) Temp. Windchill Dew Point Humidity Pressure Visibility Wind Dir Wind Speed Gust Speed Precip Events Conditions
12:16 AM 42.8 °F - 35.6 °F 76% 29.33 in 10.0 mi Calm Calm - N/A   Overcast
12:36 AM 42.8 °F - 37.4 °F 81% 29.33 in 10.0 mi Calm Calm - N/A   Overcast
12:56 AM 41.0 °F 37.1 °F 35.6 °F 81% 29.32 in 10.0 mi NE 5.8 mph - N/A   Overcast
1:16 AM 42.8 °F 39.3 °F 37.4 °F 81% 29.32 in 10.0 mi NE 5.8 mph - N/A   Overcast
1:36 AM 42.8 °F 41.1 °F 37.4 °F 81% 29.31 in 10.0 mi ENE 3.5 mph - N/A   Overcast
1:56 AM 44.6 °F - 35.6 °F 71% 29.31 in 10.0 mi Calm Calm - N/A   Overcast
2:16 AM 42.8 °F 41.1 °F 39.2 °F 87% 29.31 in 10.0 mi North 3.5 mph - N/A   Overcast
2:36 AM 42.8 °F - 39.2 °F 87% 29.30 in 10.0 mi Calm Calm - N/A   Overcast
2:56 AM 42.8 °F - 39.2 °F 87% 29.30 in 10.0 mi Calm Calm - N/A   Overcast
3:16 AM 42.8 °F 41.1 °F 39.2 °F 87% 29.30 in 10.0 mi East 3.5 mph - N/A   Overcast
3:36 AM 42.8 °F - 39.2 °F 87% 29.30 in 10.0 mi Calm Calm - N/A   Overcast
3:56 AM 42.8 °F 41.1 °F 39.2 °F 87% 29.30 in 10.0 mi SE 3.5 mph - N/A   Overcast
4:16 AM 42.8 °F 40.1 °F 39.2 °F 87% 29.29 in 10.0 mi South 4.6 mph - N/A   Overcast
4:36 AM 42.8 °F - 39.2 °F 87% 29.29 in 10.0 mi Calm Calm - N/A   Overcast
4:56 AM 42.8 °F - 39.2 °F 87% 29.29 in 10.0 mi Calm Calm - N/A   Overcast
5:16 AM 41.0 °F 39.0 °F 39.2 °F 93% 29.28 in 10.0 mi ESE 3.5 mph - N/A   Overcast
5:36 AM 41.0 °F - 39.2 °F 93% 29.28 in 10.0 mi Calm Calm - N/A   Mostly Cloudy
5:56 AM 39.2 °F 37.0 °F 39.2 °F 100% 29.28 in 10.0 mi ESE 3.5 mph - N/A   Mostly Cloudy
6:16 AM 39.2 °F - 37.4 °F 93% 29.28 in 10.0 mi Calm Calm - N/A   Overcast
6:36 AM 41.0 °F 39.0 °F 39.2 °F 93% 29.28 in 10.0 mi SW 3.5 mph - N/A   Overcast
6:56 AM 41.0 °F - 39.2 °F 93% 29.28 in 10.0 mi Calm Calm - N/A   Overcast
7:16 AM 42.8 °F 41.1 °F 39.2 °F 87% 29.29 in 10.0 mi NNW 3.5 mph - N/A   Overcast
7:36 AM 42.8 °F 35.8 °F 37.4 °F 81% 29.30 in 10.0 mi WSW 13.8 mph - N/A   Overcast
7:56 AM 42.8 °F 35.8 °F 35.6 °F 76% 29.30 in 10.0 mi WSW 13.8 mph 19.6 mph N/A   Overcast
8:16 AM 42.8 °F 37.5 °F 35.6 °F 76% 29.31 in 10.0 mi WNW 9.2 mph 18.4 mph N/A   Overcast
8:36 AM 42.8 °F 37.0 °F 35.6 °F 76% 29.31 in 10.0 mi West 10.4 mph - N/A   Overcast
8:56 AM 42.8 °F 38.0 °F 35.6 °F 76% 29.32 in 10.0 mi West 8.1 mph 18.4 mph N/A   Overcast
9:16 AM 42.8 °F 37.0 °F 35.6 °F 76% 29.32 in 10.0 mi WNW 10.4 mph - N/A   Overcast
9:36 AM 42.8 °F 37.0 °F 35.6 °F 76% 29.33 in 10.0 mi WNW 10.4 mph - N/A   Overcast
9:56 AM 42.8 °F 38.6 °F 35.6 °F 76% 29.33 in 10.0 mi WNW 6.9 mph - N/A   Overcast
10:16 AM 42.8 °F 37.0 °F 35.6 °F 76% 29.35 in 10.0 mi WNW 10.4 mph - N/A   Overcast
10:36 AM 42.8 °F 37.0 °F 35.6 °F 76% 29.35 in 10.0 mi NW 10.4 mph - N/A   Overcast
10:56 AM 42.8 °F 38.0 °F 35.6 °F 76% 29.36 in 10.0 mi WNW 8.1 mph 16.1 mph N/A   Overcast
11:16 AM 42.8 °F 37.5 °F 37.4 °F 81% 29.36 in 10.0 mi WNW 9.2 mph - N/A   Overcast
11:36 AM 42.8 °F 37.5 °F 35.6 °F 76% 29.37 in 10.0 mi WNW 9.2 mph - N/A   Overcast
11:56 AM 42.8 °F 35.8 °F 37.4 °F 81% 29.37 in 10.0 mi West 13.8 mph 21.9 mph N/A   Mostly Cloudy
12:16 PM 42.8 °F 35.8 °F 37.4 °F 81% 29.37 in 10.0 mi WNW 13.8 mph - N/A   Overcast
12:36 PM 42.8 °F 34.0 °F 35.6 °F 76% 29.38 in 10.0 mi WNW 20.7 mph 26.5 mph N/A   Overcast
12:56 PM 42.8 °F 35.1 °F 35.6 °F 76% 29.39 in 10.0 mi WNW 16.1 mph 20.7 mph N/A   Overcast
1:16 PM 42.8 °F 34.3 °F 35.6 °F 76% 29.39 in 10.0 mi WNW 19.6 mph 24.2 mph N/A   Overcast
1:36 PM 42.8 °F 37.5 °F 35.6 °F 76% 29.40 in 10.0 mi WNW 9.2 mph - N/A   Overcast
1:56 PM 42.8 °F 37.0 °F 35.6 °F 76% 29.40 in 10.0 mi West 10.4 mph 17.3 mph N/A   Overcast
2:16 PM 44.6 °F 38.4 °F 37.4 °F 76% 29.41 in 10.0 mi NW 12.7 mph 16.1 mph N/A   Overcast
2:36 PM 44.6 °F 38.1 °F 37.4 °F 76% 29.42 in 10.0 mi WNW 13.8 mph - N/A   Overcast
2:56 PM 44.6 °F 36.9 °F 39.2 °F 81% 29.43 in 10.0 mi WNW 18.4 mph 24.2 mph N/A   Mostly Cloudy
3:16 PM 44.6 °F 37.2 °F 37.4 °F 76% 29.44 in 10.0 mi WSW 17.3 mph - N/A   Overcast
3:36 PM 44.6 °F 36.1 °F 37.4 °F 76% 29.45 in 10.0 mi West 21.9 mph 26.5 mph N/A   Overcast
10:36 PM 39.2 °F 27.8 °F 33.8 °F 81% 29.74 in 10.0 mi West 27.6 mph 40.3 mph N/A   Overcast
10:56 PM 39.2 °F 27.6 °F 33.8 °F 81% 29.75 in 10.0 mi West 28.8 mph 43.7 mph N/A   Overcast
11:16 PM 39.2 °F 27.8 °F 33.8 °F 81% 29.77 in 10.0 mi West 27.6 mph 38.0 mph N/A   Overcast
11:36 PM 39.2 °F 29.0 °F 33.8 °F 81% 29.78 in 10.0 mi WNW 21.9 mph 32.2 mph N/A   Overcast
11:56 PM 37.4 °F 24.8 °F 33.8 °F 87% 29.80 in 9.0 mi WSW 31.1 mph 39.1 mph N/A   Overcast